Time,TemperatureF,DewpointF,PressureIn,WindDirection,WindDirectionDegrees,WindSpeedMPH,WindSpeedGustMPH,Humidity,HourlyPrecipIn,Conditions,Clouds,dailyrainin,SoftwareType,DateUTC
2013-02-14 00:21:00,44.0,20.0,30.14,WNW,290,2.0,5.0,38,0.00,,,-99.99,,2013-02-14 08:21:00,
2013-02-14 00:31:00,44.0,20.0,30.14,WNW,290,2.0,5.0,38,0.00,,,-99.99,,2013-02-14 08:31:00,
2013-02-14 00:43:00,44.0,20.0,30.14,WNW,290,2.0,5.0,38,0.00,,,-99.99,,2013-02-14 08:43:00,
2013-02-14 00:51:00,43.0,20.0,30.13,North,0,0.0,2.0,40,0.00,,,-99.99,,2013-02-14 08:51:00,
2013-02-14 01:21:00,43.0,20.0,30.13,North,0,0.0,2.0,40,0.00,,,-99.99,,2013-02-14 09:21:00,
2013-02-14 01:31:00,43.0,20.0,30.13,North,0,0.0,2.0,40,0.00,,,-99.99,,2013-02-14 09:31:00,
2013-02-14 01:41:00,43.0,20.0,30.13,North,0,0.0,2.0,40,0.00,,,-99.99,,2013-02-14 09:41:00,
2013-02-14 01:51:00,43.0,20.0,30.12,West,280,2.0,3.0,40,0.00,,,-99.99,,2013-02-14 09:51:00,
2013-02-14 02:21:00,43.0,20.0,30.12,West,280,2.0,3.0,40,0.00,,,-99.99,,2013-02-14 10:21:00,
2013-02-14 02:31:00,43.0,20.0,30.12,West,280,2.0,3.0,40,0.00,,,-99.99,,2013-02-14 10:31:00,
2013-02-14 02:41:00,43.0,20.0,30.12,West,280,2.0,3.0,40,0.00,,,-99.99,,2013-02-14 10:41:00,
2013-02-14 02:51:00,41.0,21.0,30.12,North,0,0.0,2.0,44,0.00,,,-99.99,,2013-02-14 10:51:00,
2013-02-14 03:21:00,41.0,21.0,30.12,North,0,0.0,2.0,44,0.00,,,-99.99,,2013-02-14 11:21:00,
2013-02-14 03:31:00,41.0,21.0,30.12,North,0,0.0,2.0,44,0.00,,,-99.99,,2013-02-14 11:31:00,
2013-02-14 03:42:00,41.0,21.0,30.12,North,0,0.0,2.0,44,0.00,,,-99.99,,2013-02-14 11:42:00,
2013-02-14 03:51:00,41.0,21.0,30.11,North,0,0.0,2.0,44,0.00,,,-99.99,,2013-02-14 11:51:00,
2013-02-14 04:22:00,41.0,21.0,30.11,North,0,0.0,2.0,44,0.00,,,-99.99,,2013-02-14 12:22:00,
2013-02-14 04:32:00,41.0,21.0,30.11,North,0,0.0,2.0,44,0.00,,,-99.99,,2013-02-14 12:32:00,
2013-02-14 04:42:00,41.0,21.0,30.11,North,0,0.0,2.0,44,0.00,,,-99.99,,2013-02-14 12:42:00,
2013-02-14 04:51:00,40.0,20.0,30.13,WNW,300,2.0,3.0,44,0.00,,,-99.99,,2013-02-14 12:51:00,
2013-02-14 05:21:00,40.0,20.0,30.13,WNW,300,2.0,3.0,44,0.00,,,-99.99,,2013-02-14 13:21:00,
2013-02-14 05:31:00,40.0,20.0,30.13,WNW,300,2.0,3.0,44,0.00,,,-99.99,,2013-02-14 13:31:00,
2013-02-14 05:41:00,40.0,20.0,30.13,WNW,300,2.0,3.0,44,0.00,,,-99.99,,2013-02-14 13:41:00,
2013-02-14 05:51:00,41.0,21.0,30.15,North,0,0.0,2.0,44,0.00,,,-99.99,,2013-02-14 13:51:00,
2013-02-14 06:21:00,41.0,21.0,30.15,North,0,0.0,2.0,44,0.00,,,-99.99,,2013-02-14 14:21:00,
2013-02-14 06:31:00,41.0,21.0,30.15,North,0,0.0,2.0,44,0.00,,,-99.99,,2013-02-14 14:31:00,
2013-02-14 06:41:00,41.0,21.0,30.15,North,0,0.0,2.0,44,0.00,,,-99.99,,2013-02-14 14:41:00,
2013-02-14 06:51:00,40.0,20.0,30.18,WNW,300,1.0,2.0,45,0.00,,,-99.99,,2013-02-14 14:51:00,
2013-02-14 07:21:00,40.0,20.0,30.18,WNW,300,1.0,2.0,45,0.00,,,-99.99,,2013-02-14 15:21:00,
2013-02-14 07:31:00,40.0,20.0,30.18,WNW,300,1.0,2.0,45,0.00,,,-99.99,,2013-02-14 15:31:00,
2013-02-14 07:41:00,40.0,20.0,30.18,WNW,300,1.0,2.0,45,0.00,,,-99.99,,2013-02-14 15:41:00,
2013-02-14 07:51:00,47.0,23.0,30.18,North,-999,0.0,0.0,38,0.00,,,-99.99,,2013-02-14 15:51:00,
2013-02-14 08:21:00,47.0,23.0,30.18,North,-999,0.0,0.0,38,0.00,,,-99.99,,2013-02-14 16:21:00,
2013-02-14 08:32:00,47.0,23.0,30.18,North,-999,0.0,0.0,38,0.00,,,-99.99,,2013-02-14 16:32:00,
2013-02-14 08:41:00,47.0,23.0,30.18,North,-999,0.0,0.0,38,0.00,,,-99.99,,2013-02-14 16:41:00,
2013-02-14 08:51:00,54.0,24.0,30.18,North,360,5.0,8.0,31,0.00,,,-99.99,,2013-02-14 16:51:00,
2013-02-14 09:21:00,54.0,24.0,30.18,North,360,5.0,8.0,31,0.00,,,-99.99,,2013-02-14 17:21:00,
2013-02-14 09:31:00,54.0,24.0,30.18,North,360,5.0,8.0,31,0.00,,,-99.99,,2013-02-14 17:31:00,
2013-02-14 09:41:00,54.0,24.0,30.18,North,360,5.0,8.0,31,0.00,,,-99.99,,2013-02-14 17:41:00,
2013-02-14 09:51:00,57.0,27.0,30.18,NNE,20,6.0,12.0,31,0.00,,,-99.99,,2013-02-14 17:51:00,
2013-02-14 10:22:00,57.0,27.0,30.18,NNE,20,6.0,12.0,31,0.00,,,-99.99,,2013-02-14 18:22:00,
2013-02-14 10:31:00,57.0,27.0,30.18,NNE,20,6.0,12.0,31,0.00,,,-99.99,,2013-02-14 18:31:00,
2013-02-14 10:41:00,57.0,27.0,30.18,NNE,20,6.0,12.0,31,0.00,,,-99.99,,2013-02-14 18:41:00,
2013-02-14 10:51:00,58.0,28.0,30.18,North,10,8.0,14.0,32,0.00,,,-99.99,,2013-02-14 18:51:00,
2013-02-14 11:21:00,58.0,28.0,30.18,North,10,8.0,14.0,32,0.00,,,-99.99,,2013-02-14 19:21:00,
2013-02-14 11:31:00,58.0,28.0,30.18,North,10,8.0,14.0,32,0.00,,,-99.99,,2013-02-14 19:31:00,
2013-02-14 11:41:00,58.0,28.0,30.18,North,10,8.0,14.0,32,0.00,,,-99.99,,2013-02-14 19:41:00,
2013-02-14 11:51:00,60.0,29.0,30.16,North,360,6.0,14.0,31,0.00,,,-99.99,,2013-02-14 19:51:00,
2013-02-14 12:21:00,60.0,29.0,30.16,North,360,6.0,14.0,31,0.00,,,-99.99,,2013-02-14 20:21:00,
2013-02-14 12:31:00,60.0,29.0,30.16,North,360,6.0,14.0,31,0.00,,,-99.99,,2013-02-14 20:31:00,
2013-02-14 12:41:00,60.0,29.0,30.16,North,360,6.0,14.0,31,0.00,,,-99.99,,2013-02-14 20:41:00,
2013-02-14 12:51:00,61.0,29.0,30.12,NNE,30,11.0,18.0,30,0.00,,,-99.99,,2013-02-14 20:51:00,
2013-02-14 13:21:00,61.0,29.0,30.12,NNE,30,11.0,18.0,30,0.00,,,-99.99,,2013-02-14 21:21:00,
2013-02-14 13:31:00,61.0,29.0,30.12,NNE,30,11.0,18.0,30,0.00,,,-99.99,,2013-02-14 21:31:00,
2013-02-14 13:41:00,61.0,29.0,30.12,NNE,30,11.0,18.0,30,0.00,,,-99.99,,2013-02-14 21:41:00,
2013-02-14 13:51:00,61.0,27.0,30.10,North,10,11.0,19.0,27,0.00,,,-99.99,,2013-02-14 21:51:00,
2013-02-14 14:21:00,61.0,27.0,30.10,North,10,11.0,19.0,27,0.00,,,-99.99,,2013-02-14 22:21:00,
2013-02-14 14:31:00,61.0,27.0,30.10,North,10,11.0,19.0,27,0.00,,,-99.99,,2013-02-14 22:31:00,
2013-02-14 14:41:00,61.0,27.0,30.10,North,10,11.0,19.0,27,0.00,,,-99.99,,2013-02-14 22:41:00,
2013-02-14 14:51:00,61.0,27.0,30.09,NE,40,16.0,16.0,27,0.00,,,-99.99,,2013-02-14 22:51:00,
2013-02-14 15:21:00,61.0,27.0,30.09,NE,40,16.0,16.0,27,0.00,,,-99.99,,2013-02-14 23:21:00,
2013-02-14 15:31:00,61.0,27.0,30.09,NE,40,16.0,16.0,27,0.00,,,-99.99,,2013-02-14 23:31:00,
2013-02-14 15:41:00,61.0,27.0,30.09,NE,40,16.0,16.0,27,0.00,,,-99.99,,2013-02-14 23:41:00,
2013-02-14 15:51:00,61.0,25.0,30.10,ENE,60,10.0,14.0,25,0.00,,,-99.99,,2013-02-14 23:51:00,
2013-02-14 16:21:00,61.0,25.0,30.10,ENE,60,10.0,14.0,25,0.00,,,-99.99,,2013-02-15 00:21:00,
2013-02-14 16:31:00,61.0,25.0,30.10,ENE,60,10.0,14.0,25,0.00,,,-99.99,,2013-02-15 00:31:00,
2013-02-14 16:41:00,61.0,25.0,30.10,ENE,60,10.0,14.0,25,0.00,,,-99.99,,2013-02-15 00:41:00,
2013-02-14 16:51:00,59.0,25.0,30.10,North,10,6.0,16.0,27,0.00,,,-99.99,,2013-02-15 00:51:00,
2013-02-14 17:21:00,59.0,25.0,30.10,North,10,6.0,16.0,27,0.00,,,-99.99,,2013-02-15 01:21:00,
2013-02-14 17:31:00,59.0,25.0,30.10,North,10,6.0,16.0,27,0.00,,,-99.99,,2013-02-15 01:31:00,
2013-02-14 17:41:00,59.0,25.0,30.10,North,10,6.0,16.0,27,0.00,,,-99.99,,2013-02-15 01:41:00,
2013-02-14 17:51:00,55.0,25.0,30.12,NNE,20,4.0,6.0,31,0.00,,,-99.99,,2013-02-15 01:51:00,
2013-02-14 18:21:00,55.0,25.0,30.12,NNE,20,4.0,6.0,31,0.00,,,-99.99,,2013-02-15 02:21:00,
2013-02-14 18:31:00,55.0,25.0,30.12,NNE,20,4.0,6.0,31,0.00,,,-99.99,,2013-02-15 02:31:00,
2013-02-14 18:41:00,55.0,25.0,30.12,NNE,20,4.0,6.0,31,0.00,,,-99.99,,2013-02-15 02:41:00,
2013-02-14 18:51:00,53.0,25.0,30.16,North,360,2.0,8.0,34,0.00,,,-99.99,,2013-02-15 02:51:00,
2013-02-14 19:21:00,53.0,25.0,30.16,North,360,2.0,8.0,34,0.00,,,-99.99,,2013-02-15 03:21:00,
2013-02-14 19:32:00,53.0,25.0,30.16,North,360,2.0,8.0,34,0.00,,,-99.99,,2013-02-15 03:32:00,
2013-02-14 19:41:00,53.0,25.0,30.16,North,360,2.0,8.0,34,0.00,,,-99.99,,2013-02-15 03:41:00,
2013-02-14 19:51:00,49.0,24.0,30.17,North,0,0.0,3.0,37,0.00,,,-99.99,,2013-02-15 03:51:00,
2013-02-14 20:21:00,49.0,24.0,30.17,North,0,0.0,3.0,37,0.00,,,-99.99,,2013-02-15 04:21:00,
2013-02-14 20:31:00,49.0,24.0,30.17,North,0,0.0,3.0,37,0.00,,,-99.99,,2013-02-15 04:31:00,
2013-02-14 20:42:00,49.0,24.0,30.17,North,0,0.0,3.0,37,0.00,,,-99.99,,2013-02-15 04:42:00,
2013-02-14 20:51:00,48.0,24.0,30.15,North,-999,0.0,0.0,38,0.00,,,-99.99,,2013-02-15 04:51:00,
2013-02-14 21:22:00,48.0,24.0,30.15,North,-999,0.0,0.0,38,0.00,,,-99.99,,2013-02-15 05:22:00,
2013-02-14 21:32:00,48.0,24.0,30.15,North,-999,0.0,0.0,38,0.00,,,-99.99,,2013-02-15 05:32:00,
2013-02-14 21:41:00,48.0,24.0,30.15,North,-999,0.0,0.0,38,0.00,,,-99.99,,2013-02-15 05:41:00,
2013-02-14 21:51:00,45.0,24.0,30.18,WNW,290,1.0,5.0,43,0.00,,,-99.99,,2013-02-15 05:51:00,
2013-02-14 22:21:00,45.0,24.0,30.18,WNW,290,1.0,5.0,43,0.00,,,-99.99,,2013-02-15 06:21:00,
2013-02-14 22:31:00,45.0,24.0,30.18,WNW,290,1.0,5.0,43,0.00,,,-99.99,,2013-02-15 06:31:00,
2013-02-14 22:42:00,45.0,24.0,30.18,WNW,290,1.0,5.0,43,0.00,,,-99.99,,2013-02-15 06:42:00,
2013-02-14 22:51:00,46.0,25.0,30.17,NW,310,1.0,4.0,43,0.00,,,-99.99,,2013-02-15 06:51:00,
2013-02-14 23:21:00,46.0,25.0,30.17,NW,310,1.0,4.0,43,0.00,,,-99.99,,2013-02-15 07:21:00,
2013-02-14 23:31:00,46.0,25.0,30.17,NW,310,1.0,4.0,43,0.00,,,-99.99,,2013-02-15 07:31:00,
2013-02-14 23:41:00,46.0,25.0,30.17,NW,310,1.0,4.0,43,0.00,,,-99.99,,2013-02-15 07:41:00,
2013-02-14 23:51:00,46.0,25.0,30.18,North,0,0.0,2.0,43,0.00,,,-99.99,,2013-02-15 07:51:00,